Location: Newark
(49.7467°N, 13.3728°E)
Time: 10:33:54
(UTC+00:00)

X-37B - Visible Passes

Search period start: 30 September 2020 00:00
Search period end: 10 October 2020 00:00
Orbit: 386 x 387 km, 45.0° (Epoch: 18 September)

Date Brightness Start Highest point End Pass type
(mag) Time Alt. Az. Time Alt. Az. Time Alt. Az.
03 Oct 2.8 18:13:59 10° SSW 18:15:15 15° S 18:15:15 15° S visible
04 Oct 3.0 17:16:55 10° SSE 17:17:41 11° SSE 17:18:28 10° SE visible
04 Oct 3.0 18:50:53 10° SW 18:51:46 16° SW 18:51:46 16° SW visible
05 Oct 2.1 17:52:43 10° SSW 17:55:14 21° SSE 17:55:54 20° SE visible
06 Oct 2.0 18:30:04 10° WSW 18:32:15 29° SSW 18:32:15 29° SSW visible
07 Oct 1.9 17:31:45 10° SW 17:34:30 27° SSE 17:36:16 17° ESE visible
07 Oct 3.4 19:07:49 10° WSW 19:08:32 15° WSW 19:08:32 15° WSW visible
08 Oct 1.5 18:09:21 10° WSW 18:12:16 34° S 18:12:31 34° SSE visible
09 Oct 1.8 17:10:56 10° WSW 17:13:49 32° S 17:16:30 11° ESE visible
09 Oct 2.8 18:47:13 10° WSW 18:48:46 21° SW 18:48:46 21° SW visible
